Powrót do katalogu

ASTRA 1D

AktywnyŁącznośćGEO
NORAD 23331·PAYLOAD·🇱🇺 Luxembourg

Wystrzelony Nov 1, 1994 z Guiana Space Centre

Loading…

TLE

ŚwieżeSource: Space-Track

Epoka: Sep 14, 2026, 05:54 UTC

1 23331U 94070A   26257.24604418 -.00000285  00000-0  00000-0 0  9999
2 23331  12.4259  28.0433 0007837 145.1028  46.6109  0.98952701116828

Śledź ASTRA 1D w czasie rzeczywistym z AllMySat

Download on the App Store